Temp
-14 -14 -14 -14 -15 -15 -15 -15 -16 -16 -17 -17 -17 -16 -16 -16 -16 -18 -19 -21 -23 -24 -25 -25 -26 -26 -27 -27 -26 -26 -26 -26 -25 -24 -22 -21 -20 -20 -18 -18 -17 -17 -16 -15
-14 -14 -14 -15 -15 -15 -15 -16 -16 -17 -17 -17 -17 -16 -16 -17 -17 -18 -20 -22 -24 -25 -25 -26 -26 -27 -27 -28 -28 -27 -26 -26 -26 -25 -24 -22 -21 -20 -19 -18 -18 -18 -17 -16
-15 -15 -15 -15 -15 -15 -16 -16 -17 -17 -18 -17 -17 -16 -16 -17 -18 -19 -20 -23 -24 -25 -25 -26 -26 -26 -27 -28 -28 -27 -27 -27 -26 -26 -25 -23 -22 -21 -21 -19 -19 -19 -18 -17
-15 -15 -15 -15 -15 -15 -16 -16 -17 -18 -18 -17 -17 -16 -17 -17 -19 -20 -20 -23 -24 -25 -25 -26 -26 -27 -27 -27 -28 -28 -28 -28 -28 -27 -26 -25 -23 -22 -21 -19 -18 -18 -19 -18
-15 -15 -15 -15 -15 -15 -16 -17 -17 -18 -18 -17 -17 -17 -17 -18 -19 -20 -21 -23 -24 -25 -25 -26 -26 -26 -27 -27 -27 -27 -28 -27 -28 -28 -27 -25 -23 -22 -21 -20 -19 -18 -18 -18
-15 -15 -15 -15 -15 -16 -17 -17 -18 -17 -18 -17 -17 -18 -19 -19 -21 -21 -22 -23 -24 -25 -25 -26 -26 -26 -26 -27 -27 -27 -27 -27 -27 -27 -27 -25 -24 -22 -21 -20 -19 -19 -19 -19
-15 -15 -16 -15 -15 -16 -17 -17 -17 -17 -17 -18 -18 -18 -19 -21 -21 -21 -23 -23 -24 -25 -25 -26 -26 -26 -26 -26 -26 -26 -26 -27 -27 -27 -27 -25 -24 -22 -21 -20 -19 -19 -19 -19
-15 -15 -16 -16 -16 -16 -17 -18 -18 -18 -18 -18 -18 -18 -20 -21 -21 -22 -23 -23 -24 -25 -25 -26 -26 -26 -26 -26 -26 -26 -26 -26 -26 -26 -26 -25 -23 -21 -21 -20 -20 -19 -19 -19
-16 -15 -16 -16 -16 -17 -17 -17 -18 -18 -18 -18 -18 -19 -20 -20 -20 -22 -22 -23 -24 -24 -25 -25 -26 -25 -25 -25 -25 -25 -25 -25 -26 -25 -24 -23 -22 -21 -20 -20 -20 -20 -20 -19
-16 -15 -16 -16 -16 -17 -17 -18 -18 -18 -19 -19 -18 -19 -20 -19 -20 -22 -22 -22 -23 -24 -24 -25 -25 -25 -25 -24 -24 -24 -24 -24 -25 -24 -23 -22 -21 -21 -20 -20 -19 -19 -19 -19
-16 -16 -16 -16 -16 -17 -17 -17 -18 -19 -20 -20 -18 -20 -19 -19 -19 -20 -21 -21 -23 -23 -24 -24 -25 -25 -25 -24 -24 -24 -24 -23 -23 -23 -21 -21 -20 -20 -19 -19 -19 -19 -19 -19
-16 -16 -15 -16 -16 -17 -17 -17 -18 -19 -19 -20 -20 -19 -19 -19 -19 -19 -20 -21 -22 -22 -22 -23 -23 -23 -23 -24 -23 -23 -24 -23 -23 -22 -21 -21 -20 -20 -20 -19 -19 -19 -19 -19
-16 -16 -15 -16 -16 -17 -17 -18 -19 -19 -19 -20 -20 -19 -19 -19 -19 -19 -20 -21 -21 -21 -22 -22 -22 -22 -22 -22 -22 -22 -22 -22 -22 -22 -21 -21 -21 -20 -20 -20 -20 -19 -19 -19
-16 -16 -16 -16 -16 -17 -17 -18 -18 -19 -19 -19 -20 -20 -19 -19 -19 -19 -19 -20 -20 -20 -20 -20 -21 -20 -21 -21 -21 -21 -21 -21 -21 -21 -21 -21 -21 -20 -20 -20 -20 -20 -20 -19
-16 -16 -16 -16 -16 -17 -17 -18 -18 -19 -19 -19 -20 -19 -19 -19 -19 -19 -19 -19 -20 -20 -20 -20 -20 -20 -20 -20 -21 -21 -21 -21 -21 -21 -21 -21 -21 -21 -21 -21 -21 -20 -20 -20
-16 -16 -16 -16 -16 -17 -17 -18 -18 -19 -19 -19 -19 -19 -19 -18 -19 -19 -19 -19 -19 -20 -20 -20 -20 -20 -20 -20 -20 -20 -21 -21 -21 -21 -21 -21 -20 -20 -20 -20 -19 -19 -19 -19
-16 -16 -16 -16 -16 -17 -17 -18 -18 -19 -19 -19 -19 -19 -19 -18 -18 -19 -19 -19 -19 -19 -19 -20 -20 -20 -20 -20 -20 -20 -21 -20 -20 -21 -21 -21 -20 -20 -20 -19 -19 -19 -19 -19
-16 -16 -16 -16 -16 -16 -17 -17 -18 -18 -19 -19 -19 -19 -19 -19 -19 -19 -19 -19 -20 -20 -20 -20 -20 -20 -20 -20 -20 -20 -20 -20 -19 -20 -20 -20 -20 -20 -20 -19 -19 -19 -19 -19
-17 -16 -16 -16 -16 -16 -16 -17 -18 -18 -18 -19 -18 -18 -19 -19 -19 -19 -19 -19 -19 -19 -19 -20 -20 -20 -20 -20 -20 -20 -20 -19 -19 -19 -19 -19 -20 -20 -19 -19 -19 -19 -20 -19
-17 -16 -16 -16 -16 -16 -16 -17 -17 -18 -18 -18 -18 -18 -18 -18 -19 -19 -19 -19 -19 -19 -19 -20 -20 -20 -20 -20 -20 -20 -20 -20 -20 -20 -20 -20 -20 -20 -20 -20 -20 -20 -20 -20
-17 -16 -16 -16 -16 -16 -16 -16 -17 -17 -18 -18 -18 -18 -18 -18 -18 -18 -19 -19 -19 -19 -19 -20 -20 -20 -20 -20 -20 -20 -20 -20 -19 -19 -19 -19 -19 -20 -20 -20 -20 -20 -20 -20
-17 -17 -17 -16 -16 -16 -16 -17 -17 -17 -17 -18 -18 -18 -18 -18 -18 -19 -19 -19 -19 -19 -19 -20 -20 -20 -20 -20 -20 -19 -19 -19 -19 -19 -19 -19 -19 -19 -19 -19 -19 -19 -19 -20
-17 -17 -17 -17 -17 -17 -17 -17 -17 -17 -17 -17 -17 -18 -18 -18 -18 -19 -19 -19 -19 -19 -19 -19 -19 -20 -20 -20 -20 -19 -19 -19 -19 -19 -19 -18 -18 -18 -18 -18 -19 -19 -19 -19
-17 -17 -17 -17 -17 -17 -17 -17 -17 -17 -17 -17 -17 -18 -18 -18 -18 -18 -18 -19 -19 -19 -19 -19 -19 -19 -19 -19 -19 -19 -19 -19 -19 -18 -18 -18 -18 -19 -19 -18 -18 -19 -19 -19
-17 -17 -17 -17 -17 -17 -17 -17 -17 -17 -17 -17 -17 -17 -17 -18 -18 -18 -18 -18 -18 -19 -19 -19 -19 -19 -19 -19 -19 -19 -19 -19 -19 -19 -19 -18 -18 -18 -18 -18 -19 -19 -19 -19
-17 -17 -17 -18 -17 -17 -17 -17 -17 -17 -17 -17 -17 -17 -17 -17 -18 -18 -18 -18 -18 -18 -18 -19 -19 -19 -19 -19 -19 -19 -19 -19 -19 -19 -19 -19 -19 -19 -19 -19 -19 -19 -20 -20
Height
5690 5688 5684 5681 5677 5672 5665 5658 5651 5645 5639 5632 5624 5616 5605 5592 5578 5563 5548 5533 5522 5513 5504 5497 5489 5483 5477 5472 5469 5468 5468 5473 5482 5492 5507 5522 5539 5549 5563 5579 5592 5603 5616 5626
5685 5681 5677 5674 5670 5664 5657 5650 5644 5636 5630 5622 5615 5607 5594 5580 5565 5551 5536 5522 5513 5504 5494 5486 5479 5473 5468 5463 5459 5456 5456 5459 5466 5475 5489 5503 5521 5538 5553 5566 5578 5589 5600 5611
5678 5675 5671 5668 5663 5658 5650 5642 5635 5628 5621 5614 5605 5598 5584 5570 5555 5540 5526 5514 5505 5497 5487 5478 5471 5464 5459 5455 5451 5447 5445 5450 5455 5463 5474 5488 5506 5520 5535 5548 5562 5576 5592 5600
5672 5669 5665 5662 5657 5650 5643 5635 5627 5619 5614 5606 5597 5587 5574 5559 5545 5531 5517 5506 5498 5490 5481 5473 5465 5459 5454 5449 5446 5442 5441 5444 5449 5456 5465 5478 5491 5508 5524 5542 5558 5574 5584 5594
5667 5663 5659 5655 5650 5643 5636 5626 5619 5612 5607 5601 5590 5578 5564 5550 5535 5523 5510 5499 5492 5484 5476 5469 5462 5457 5451 5446 5442 5440 5441 5443 5447 5451 5459 5469 5483 5501 5519 5535 5549 5565 5578 5587
5660 5657 5654 5650 5644 5637 5630 5621 5612 5606 5601 5594 5583 5572 5558 5542 5530 5516 5502 5493 5488 5480 5473 5466 5460 5454 5449 5444 5440 5439 5438 5439 5442 5447 5454 5464 5477 5494 5513 5530 5545 5559 5570 5580
5654 5652 5648 5645 5639 5632 5624 5615 5606 5600 5592 5586 5578 5567 5556 5540 5526 5511 5498 5490 5485 5478 5472 5465 5458 5453 5447 5442 5439 5437 5436 5437 5438 5443 5451 5461 5475 5492 5510 5526 5541 5553 5565 5574
5648 5648 5643 5640 5634 5626 5619 5611 5603 5593 5587 5582 5575 5564 5552 5538 5522 5508 5495 5489 5485 5479 5474 5466 5460 5453 5447 5441 5438 5436 5435 5435 5437 5443 5451 5461 5475 5492 5510 5525 5537 5548 5559 5568
5642 5642 5638 5634 5628 5623 5615 5608 5602 5592 5584 5575 5571 5560 5549 5534 5519 5505 5498 5491 5487 5483 5476 5469 5461 5454 5448 5444 5440 5437 5437 5438 5440 5445 5453 5464 5479 5494 5509 5522 5535 5544 5553 5561
5638 5637 5635 5630 5625 5619 5612 5605 5597 5589 5578 5568 5565 5556 5544 5533 5521 5509 5502 5495 5490 5486 5480 5473 5465 5458 5452 5448 5445 5442 5442 5444 5447 5451 5458 5470 5484 5497 5509 5521 5531 5540 5548 5556
5633 5633 5632 5626 5621 5614 5608 5602 5594 5586 5578 5569 5559 5555 5545 5535 5525 5515 5506 5500 5495 5490 5484 5478 5470 5463 5458 5455 5453 5452 5451 5452 5455 5459 5467 5477 5488 5499 5509 5519 5527 5535 5543 5551
5629 5628 5626 5624 5618 5611 5605 5598 5591 5583 5575 5570 5562 5555 5545 5537 5528 5520 5512 5506 5500 5495 5489 5483 5477 5471 5466 5463 5462 5461 5460 5461 5463 5468 5475 5483 5492 5500 5509 5517 5524 5532 5539 5547
5626 5625 5623 5620 5617 5610 5603 5596 5589 5581 5575 5569 5561 5553 5546 5540 5532 5526 5519 5512 5507 5500 5494 5489 5483 5478 5475 5473 5472 5471 5470 5470 5473 5476 5482 5488 5495 5501 5509 5516 5523 5530 5537 5543
5621 5621 5619 5616 5610 5605 5599 5593 5586 5580 5574 5568 5562 5555 5548 5543 5537 5531 5525 5519 5513 5507 5501 5496 5491 5486 5483 5481 5480 5479 5479 5480 5482 5485 5489 5494 5499 5505 5512 5518 5523 5528 5534 5539
5618 5618 5617 5612 5608 5603 5597 5591 5586 5580 5575 5569 5562 5556 5551 5547 5542 5535 5531 5525 5519 5513 5508 5503 5498 5494 5491 5489 5488 5487 5487 5488 5490 5493 5497 5501 5505 5509 5514 5519 5524 5529 5534 5538
5613 5615 5613 5611 5606 5602 5597 5591 5586 5581 5576 5570 5564 5558 5554 5550 5546 5541 5536 5530 5526 5520 5516 5511 5506 5502 5499 5498 5495 5494 5493 5494 5496 5499 5502 5506 5510 5514 5518 5523 5527 5531 5536 5539
5609 5610 5610 5609 5605 5601 5597 5591 5587 5583 5578 5573 5567 5562 5558 5555 5551 5546 5540 5535 5532 5528 5524 5519 5514 5510 5506 5504 5502 5500 5500 5500 5500 5504 5508 5511 5515 5519 5522 5525 5529 5533 5536 5540
5605 5606 5606 5606 5604 5601 5597 5591 5588 5584 5581 5578 5572 5567 5564 5561 5556 5551 5547 5543 5540 5536 5531 5526 5522 5519 5516 5514 5513 5512 5510 5507 5509 5513 5517 5520 5522 5523 5526 5529 5533 5536 5538 5541
5601 5603 5603 5603 5602 5601 5596 5592 5589 5586 5585 5582 5580 5576 5572 5569 5565 5561 5557 5553 5548 5544 5540 5537 5535 5533 5532 5530 5527 5523 5521 5520 5521 5523 5524 5526 5527 5529 5531 5533 5536 5538 5541 5543
5596 5598 5600 5600 5600 5600 5597 5593 5590 5588 5587 5586 5585 5582 5579 5576 5572 5568 5564 5560 5556 5552 5549 5547 5545 5542 5538 5535 5534 5534 5533 5533 5532 5533 5533 5534 5535 5536 5539 5540 5543 5545 5547 5549
5592 5594 5596 5597 5597 5598 5597 5594 5591 5591 5592 5587 5587 5586 5583 5581 5577 5574 5570 5567 5564 5561 5557 5554 5552 5550 5548 5547 5545 5543 5541 5541 5540 5540 5540 5540 5541 5542 5544 5545 5546 5548 5549 5550
5587 5590 5592 5593 5594 5596 5596 5595 5593 5592 5591 5589 5588 5587 5585 5583 5580 5577 5574 5571 5568 5566 5563 5561 5560 5558 5555 5552 5550 5548 5547 5546 5545 5545 5544 5544 5545 5546 5546 5547 5548 5549 5550 5551
5583 5586 5588 5590 5591 5592 5593 5593 5592 5591 5591 5590 5588 5587 5586 5584 5582 5580 5577 5575 5572 5571 5569 5567 5565 5563 5560 5558 5555 5553 5552 5551 5551 5551 5550 5549 5549 5548 5549 5549 5550 5551 5551 5551
5576 5579 5583 5584 5586 5588 5589 5590 5590 5590 5589 5589 5588 5586 5586 5584 5583 5581 5579 5578 5576 5573 5572 5570 5568 5567 5564 5562 5560 5558 5557 5556 5555 5553 5552 5552 5551 5551 5551 5551 5550 5549 5549 5549
5570 5574 5577 5579 5579 5582 5584 5586 5586 5587 5587 5587 5586 5585 5584 5583 5583 5581 5580 5579 5577 5576 5574 5572 5571 5569 5567 5564 5563 5561 5559 5558 5556 5555 5554 5553 5552 5552 5551 5550 5549 5549 5548 5547
5562 5565 5567 5572 5572 5577 5579 5580 5582 5583 5583 5584 5584 5583 5582 5581 5580 5580 5580 5578 5577 5576 5575 5574 5572 5570 5567 5565 5563 5562 5560 5559 5558 5556 5555 5555 5554 5553 5552 5550 5549 5547 5545 5543
Wind_Speed
28 30 31 32 33 36 40 42 40 38 39 41 44 48 55 58 61 61 57 52 42 43 42 41 42 40 39 33 35 39 45 60 64 74 83 88 87 86 85 80 76 77 78 71
29 31 32 33 34 38 41 42 41 40 38 41 44 48 52 57 60 60 52 44 37 41 40 39 39 37 33 30 32 37 40 41 55 65 71 79 85 84 81 80 75 76 83 76
29 31 32 33 35 40 42 43 43 41 37 38 45 47 53 57 58 57 49 40 35 37 33 34 34 33 29 25 26 26 33 38 42 52 66 70 78 81 81 81 75 70 74 81
29 31 32 33 35 42 45 45 44 39 35 39 43 47 54 57 57 54 48 40 33 33 29 29 28 27 22 22 22 17 17 19 35 39 53 66 71 77 80 78 74 68 63 66
28 30 32 33 37 42 46 48 44 35 33 37 41 48 54 55 57 54 47 39 31 28 24 25 25 23 21 20 18 16 19 20 27 30 35 55 65 72 74 73 71 66 62 57
29 30 31 32 37 42 46 46 37 33 33 35 40 47 51 54 56 53 45 35 27 23 23 22 21 21 20 19 15 15 21 21 27 34 34 43 58 65 68 68 63 60 54 52
28 29 30 31 37 40 44 39 34 37 39 36 38 45 46 49 55 51 41 29 23 20 21 22 21 21 20 18 15 13 16 18 25 31 38 34 49 58 63 61 56 52 48 40
27 26 29 30 35 42 39 34 35 40 41 35 35 43 43 48 56 49 32 23 19 17 20 19 18 17 11 11 12 12 13 16 24 35 38 34 43 51 56 53 49 43 39 36
27 25 27 29 34 39 37 35 36 40 39 38 34 40 41 47 53 40 25 17 15 18 22 22 23 20 18 9 3 3 7 14 22 34 36 31 36 41 47 43 41 38 36 35
24 26 25 28 32 36 35 35 38 38 40 38 36 38 39 46 39 23 25 20 17 21 23 26 26 23 19 15 11 8 7 13 22 30 32 29 32 35 37 36 36 36 36 36
23 23 23 27 30 34 34 34 36 40 31 32 37 34 33 34 25 29 25 22 19 22 24 27 35 35 28 19 15 14 13 17 21 27 32 32 30 29 30 32 32 34 37 38
22 22 22 25 29 30 31 33 36 35 27 27 30 28 31 21 28 30 25 19 20 25 26 27 28 31 30 27 18 16 15 17 20 22 24 25 27 27 28 30 29 31 36 40
20 19 21 23 26 26 27 32 32 23 23 24 25 25 26 16 23 28 26 23 23 25 29 29 30 33 30 26 23 21 20 19 18 19 20 21 22 23 23 23 24 25 27 30
19 17 20 23 26 26 28 30 21 20 21 19 18 17 21 12 19 21 29 26 29 30 30 29 29 30 28 26 24 24 24 23 22 19 16 15 18 19 20 20 21 22 24 25
17 14 16 21 22 23 28 24 18 19 18 17 16 14 16 11 21 18 23 27 28 29 27 29 28 27 26 24 23 22 22 22 19 17 15 14 14 15 17 18 20 20 17 17
15 11 12 16 17 20 23 18 16 17 15 14 14 12 15 14 13 20 21 23 26 24 25 26 28 29 25 23 25 23 23 22 17 18 15 13 12 11 9 8 7 9 13 11
14 11 10 12 12 16 19 14 14 14 14 13 15 14 16 19 18 17 18 20 23 24 23 26 33 32 28 29 28 23 17 13 11 18 19 16 16 18 11 13 24 18 15 13
13 9 8 8 9 12 16 15 12 12 12 15 22 21 21 23 27 31 35 38 38 41 44 45 46 45 41 35 32 31 35 32 31 26 20 16 17 13 13 17 17 18 8 4
14 8 5 5 5 9 14 14 12 11 12 16 25 31 31 31 32 35 37 38 39 40 41 42 42 40 38 37 39 42 39 34 31 25 21 23 21 18 16 16 13 11 7 7
14 9 5 4 2 5 10 12 12 12 14 18 20 22 24 27 30 32 33 35 36 37 38 37 37 36 36 36 35 33 33 32 32 31 27 26 27 23 20 20 20 18 17 14
17 12 8 7 6 0 5 9 11 12 14 19 16 17 19 21 23 25 27 29 30 32 34 36 36 34 31 29 26 24 24 24 23 23 22 21 20 18 16 15 14 12 10 7
20 15 11 9 9 6 2 4 9 10 13 19 16 13 12 13 15 17 19 22 24 26 28 29 31 32 30 28 25 22 20 20 19 19 18 16 15 14 13 11 9 7 6 4
23 19 15 11 11 11 8 6 6 10 14 15 13 11 8 7 7 9 12 15 18 20 22 24 27 30 30 27 23 19 19 19 17 16 15 14 13 12 10 8 6 5 4 5
28 24 18 15 14 15 14 11 9 9 11 13 12 11 8 5 2 2 6 9 12 16 20 22 24 25 26 24 20 16 13 13 13 12 11 9 8 6 5 4 4 5 7 9
32 28 22 20 19 17 19 17 15 13 12 13 14 11 8 7 5 5 6 8 11 15 17 19 21 23 24 22 19 14 12 11 12 10 7 5 4 4 5 6 8 10 13 14
29 31 30 25 26 19 20 22 20 19 18 16 15 16 14 12 11 10 10 12 14 16 17 19 20 22 22 20 17 15 14 12 12 11 12 13 13 13 13 14 16 17 19 21
Wind_Direction
288 290 296 301 309 312 311 309 307 296 304 310 318 326 330 329 331 331 329 319 303 299 301 298 297 291 287 282 273 258 250 237 234 226 226 224 222 222 221 221 223 219 218 218
288 291 296 303 309 313 312 311 309 297 305 314 318 329 329 332 332 332 327 317 307 303 303 301 297 292 285 276 281 272 247 240 233 227 222 222 221 220 222 220 222 220 219 221
287 291 297 305 310 312 314 314 310 304 307 315 320 327 331 334 332 334 329 319 306 307 304 304 301 298 291 276 287 275 244 234 231 227 221 218 220 219 219 218 220 223 222 224
287 290 297 305 311 313 315 315 313 306 310 318 323 327 331 334 335 338 329 324 308 311 314 308 308 304 302 284 287 273 221 223 227 224 224 219 217 218 220 217 218 219 225 230
288 292 300 308 313 313 317 318 315 307 314 318 325 327 333 336 337 338 330 326 316 317 320 314 315 307 306 295 278 256 232 224 221 212 222 221 214 217 217 217 216 220 225 229
287 294 301 311 314 316 318 320 312 312 314 322 329 332 336 338 337 339 329 327 321 323 329 325 324 314 309 302 288 258 242 233 225 216 215 221 211 211 214 215 213 219 223 227
287 296 302 312 314 316 322 320 318 317 320 329 333 333 338 339 337 340 330 329 325 334 336 334 332 322 310 302 292 265 249 240 225 211 212 206 204 206 210 211 211 218 224 225
285 293 304 312 316 320 327 324 326 324 322 324 333 335 341 340 340 341 339 335 333 354 357 359 357 347 348 311 291 272 248 220 213 204 195 188 193 200 205 206 209 216 221 221
285 296 306 314 319 324 327 325 327 325 322 325 336 339 345 344 346 352 354 350 353 11 7 16 14 14 12 17 2 263 222 200 194 188 173 169 185 197 202 203 208 215 217 217
285 296 306 316 320 325 324 325 330 333 330 332 337 343 350 353 360 16 3 7 21 19 15 22 13 25 26 40 55 62 118 151 163 160 149 159 181 191 197 202 210 215 216 218
285 297 310 316 323 326 324 327 330 330 334 331 335 350 357 9 24 13 13 18 36 27 32 27 33 38 38 52 67 80 103 121 131 142 148 156 165 177 190 200 207 213 216 217
283 300 310 318 325 328 326 329 330 333 340 336 338 358 11 29 36 30 26 35 33 36 33 36 45 52 48 42 55 76 89 106 120 132 145 158 170 180 190 197 203 206 210 214
282 302 312 319 326 332 329 333 335 343 342 342 346 2 16 39 40 41 35 36 39 39 41 41 47 53 52 57 61 67 77 86 104 123 139 151 161 171 180 191 200 204 205 208
276 301 313 322 333 333 336 339 345 348 348 353 351 12 20 48 37 47 43 43 44 48 46 45 48 53 53 57 66 74 80 85 90 99 117 142 157 164 172 178 184 187 191 196
277 299 313 321 333 335 341 346 354 350 355 359 358 16 27 53 51 57 56 55 49 48 53 52 53 58 61 65 67 72 78 81 88 96 106 120 135 153 169 178 185 192 201 212
273 292 315 319 333 340 346 354 358 3 13 14 4 21 39 57 61 60 69 56 46 48 61 56 57 71 77 67 66 80 86 88 102 108 104 114 138 152 169 183 186 167 159 172
266 284 312 318 331 350 355 12 12 27 36 27 28 39 57 57 63 50 44 54 63 61 58 55 61 66 70 69 61 65 68 53 79 111 110 113 113 119 131 155 157 160 151 180
256 271 306 318 339 2 11 27 38 46 59 52 52 61 70 64 68 73 77 81 82 79 73 71 66 68 68 66 67 72 77 72 90 90 91 104 134 92 109 117 123 145 132 126
245 249 279 295 327 13 24 37 52 71 83 82 75 80 83 84 80 75 74 72 71 68 67 66 66 66 67 67 67 66 71 78 88 90 94 91 101 106 101 107 117 118 147 155
234 227 244 246 270 16 27 47 62 94 100 98 100 92 88 81 77 73 68 64 62 61 60 58 56 55 54 53 53 57 62 67 73 79 85 90 90 93 99 100 98 92 88 86
229 219 225 227 222 165 39 58 74 97 114 118 114 100 92 85 74 67 64 59 56 53 50 48 47 46 46 47 49 52 55 57 62 70 75 78 78 80 77 73 68 67 66 59
222 216 217 222 220 217 177 96 100 106 125 134 132 120 106 95 82 69 60 54 49 46 43 40 38 37 37 38 41 44 48 51 52 53 54 58 65 74 73 70 66 59 44 23
220 217 218 220 222 213 202 166 151 140 147 150 152 147 133 120 103 78 58 48 41 36 33 31 30 29 29 30 35 42 47 53 58 59 60 59 58 54 48 44 37 22 356 331
223 223 214 218 222 220 211 202 191 187 177 179 179 177 172 167 172 50 37 30 23 17 16 17 19 20 23 25 28 34 40 33 26 26 27 29 35 31 18 359 332 314 301 297
227 228 223 223 225 226 220 215 207 206 209 206 208 212 214 213 233 275 319 345 352 355 356 360 5 7 10 13 15 15 13 7 2 4 9 3 345 326 311 302 300 296 294 291
231 229 230 224 232 224 232 221 218 217 220 223 228 230 232 243 246 254 278 303 318 329 336 342 346 349 354 356 360 359 353 349 348 343 338 332 330 324 318 313 309 304 301 298